Regional Weather Roundup
Issued by NWS

Home | Current Version | Previous Version | Text Only | Print | Product List | Glossary Off
Versions: 1 2 3 4 5 6 7 8 9 10 11 12 13 14 15 16 17 18 19 20 21 22 23 24 25 26 27 28 29 30 31 32 33 34 35 36 37 38 39 40 41 42 43 44 45 46 47 48 49 50

000
ASUS45 KABQ 042010
RWRNM
NEW MEXICO REGIONAL WEATHER ROUNDUP
NATIONAL WEATHER SERVICE ALBUQUERQUE NM
200 PM MDT SAT JUL 04 2015

NOTE: "FAIR" MEANS FEW OR NO CLOUDS BELOW 12,000 FEET AGL WITH NO
       SIGNIFICANT WEATHER OR OBSTRUCTIONS TO VISION.

      THIS PRODUCT IS RELEASED AS TWO VERSIONS.  ONE VERSION NEAR
      THE TOP OF THE HOUR CONTAINING PRELIMINARY DATA FROM ALBUQUERQUE
      AND OTHER STATIONS.  A FINAL VERSION WITH ADDITIONAL DATA IS
      ISSUED ABOUT 10 MINUTES AFTER THE HOUR.

NMZ501-503-504-510>518-042100-
NORTHWEST PLATEAU/NORTHCENTRAL MOUNTAINS

CITY           SKY/WX    TMP DP  RH WIND       PRES   REMARKS
FARMINGTON     SUNNY     89  50  26 W7        30.06F
LOS ALAMOS     CLOUDY    71  46  39 W8        30.23F
SANTA FE       LGT RAIN  67  57  70 S5        30.16F
TAOS           MOSUNNY   81  46  30 NW9       30.20F
ANGEL FIRE     FAIR      73  53  48 SW7       30.29F

$$
NMZ402-403-502-505>509-042100-
WESTCENTRAL MOUNTAINS/SOUTHWEST MOUNTAINS

CITY           SKY/WX    TMP DP  RH WIND       PRES   REMARKS
GALLUP         MOSUNNY   86  50  28 MISG      30.15F
GRANTS         CLOUDY    70  55  59 SW10      30.18F
SILVER CITY      N/A     82  54  36 N5        30.13F

$$
NMZ407-409-411-412-042100-
SOUTHERN DESERTS

CITY           SKY/WX    TMP DP  RH WIND       PRES   REMARKS
LORDSBURG      FAIR      82  54  36 CALM      30.05F
DEMING         MOSUNNY   86  58  38 VRB5      30.04F
LAS CRUCES     MOSUNNY   87  57  36 SW3       30.04F
HOLLOMAN AFB   MOSUNNY   90  53  28 E6        29.99F
ALAMOGORDO     MOSUNNY   91  54  27 NE5       30.02F
T OR C         MOSUNNY   89  54  30 S10       30.04F

$$
NMZ519>523-042100-
CENTRAL VALLEYS/CENTRAL HIGHLANDS

CITY           SKY/WX    TMP DP  RH WIND       PRES   REMARKS
ALBUQUERQUE    MOSUNNY   87  51  28 VRB6      30.08F
DOUBLE EAGLE   PTSUNNY   88  55  33 S8        30.12
MORIARTY ARPT  TSTM      69  52  55 S12       30.18S
CLINES CORNERS PTSUNNY   82  52  35 S7        30.20F
BELEN          FAIR      89  50  26 E7        30.07F
SOCORRO        FAIR      90  53  28 SE15      30.04F

$$
NMZ524>526-539-540-042100-
SOUTHCENTRAL MOUNTAINS

CITY           SKY/WX    TMP DP  RH WIND       PRES   REMARKS
RUIDOSO        NOT AVBL

$$
NMZ527>531-042100-
NORTHEAST HIGHLANDS/NORTHEAST PLAINS

CITY           SKY/WX    TMP DP  RH WIND       PRES   REMARKS
LAS VEGAS      CLOUDY    70  53  54 SW6       30.21F
RATON          MOSUNNY   84  53  34 SW8       30.11F
CLAYTON        SUNNY     91  55  29 S24G33    30.03F

$$
NMZ532>537-042100-
EASTCENTRAL PLAINS

CITY           SKY/WX    TMP DP  RH WIND       PRES   REMARKS
TUCUMCARI      MOSUNNY   93  50  23 SW12G23   30.01F
CANNON AFB     MOSUNNY   86  59  39 SE8       30.06F
CLOVIS AIRPORT MOSUNNY   86  57  37 S12         N/A

$$
NMZ028-029-538-042100-
SOUTHEAST PLAINS

CITY           SKY/WX    TMP DP  RH WIND       PRES   REMARKS
ROSWELL        SUNNY     89  58  34 S12G25    30.02F
ARTESIA        SUNNY     88  61  40 SE10G21   30.03F
CARLSBAD       SUNNY     90  59  35 VRB5G17   29.99F
HOBBS          PTSUNNY   88  55  33 E14       30.04F


$$



USA.gov is the U.S. government's official web portal to all federal, state and local government web resources and services.